Location: Baggettsville
(36.4767°N, 86.7303°W)
Time: 20:24:47
(UTC+00:00)

ISS - Pass Details

Date: 03 October 2021
Orbit: 417 x 423 km, 51.6° (Epoch: 23 October)

Event Time Altitude Azimuth Distance (km) Brightness Sun altitude
Rises 01:18:23 0° 316° (NW) 2,363 1.0 -22.8°
Reaches altitude 10° 01:20:33 10° 323° (NW) 1,498 -0.3 -23.2°
Enters shadow 01:22:20 26° 341° (NNW) 858 -1.9 -23.6°
